SCP
0 0 1 1 1 1 0 0 0 0 0 0 0 0 0 0 0 0 0 1 1 1 1 1 1 1 1 1 1 1 1 1 1 1 1 1 1 1 1 1 1 1 1 1 1 1 0 0 0
0 0 0 0 1 1 0 0 0 0 0 0 0 0 0 0 0 0 0 0 1 1 1 1 1 1 1 1 2 2 2 1 1 1 1 1 1 1 1 1 1 1 1 1 1 1 0 0 0
0 0 0 0 0 0 0 0 0 0 0 0 0 1 1 0 0 0 0 0 1 1 1 1 2 2 2 2 2 2 2 2 1 1 1 1 1 1 1 1 1 1 1 1 1 1 1 1 1
0 0 0 0 0 0 0 0 0 0 0 0 1 1 1 1 0 0 0 0 1 1 1 1 2 2 2 2 2 2 2 2 2 1 1 1 1 1 1 1 1 1 1 1 1 1 1 1 1
0 0 0 0 0 0 0 0 0 0 0 1 1 1 1 1 0 0 0 1 1 1 1 2 2 3 3 3 3 2 2 2 2 2 1 1 1 1 1 1 1 1 1 1 1 1 1 1 1
0 0 0 0 0 0 0 0 1 1 1 1 1 1 1 1 0 1 1 1 1 2 2 2 3 3 3 3 3 3 2 2 2 2 2 1 1 1 1 1 1 1 1 1 1 1 1 1 1
0 0 0 0 0 0 1 1 1 1 1 1 1 1 1 1 1 1 1 1 2 2 2 2 3 3 3 3 3 3 3 3 2 2 2 2 2 1 1 2 2 2 2 2 2 2 2 2 2
0 0 0 0 0 0 1 1 1 1 2 2 2 2 1 1 1 1 1 2 2 3 3 3 3 3 3 3 4 4 3 3 3 2 2 2 2 2 2 2 2 2 2 2 2 2 2 2 2
0 0 0 0 0 0 1 1 1 2 2 3 3 3 2 2 2 2 2 2 3 3 3 3 3 3 3 3 4 4 4 4 3 3 3 2 2 2 2 2 2 2 2 2 2 2 2 2 2
0 -0 0 0 0 0 1 1 1 2 3 4 4 3 2 2 2 2 2 3 3 4 3 3 3 3 3 3 3 3 4 4 4 3 3 3 2 2 2 2 2 2 2 2 2 2 2 2 2
0 0 0 0 0 0 0 1 1 2 3 4 4 3 2 2 2 2 3 3 4 4 3 3 2 2 3 3 3 3 3 3 3 3 3 3 2 2 2 2 2 2 2 2 2 2 2 2 2
0 0 0 0 0 0 0 0 1 2 3 3 2 2 2 2 3 3 3 4 4 3 3 3 3 3 3 3 3 3 3 2 2 3 3 2 2 2 2 2 2 2 2 2 2 2 2 1 1
0 0 0 0 0 0 0 0 1 3 3 2 2 2 2 3 3 4 4 4 4 4 3 3 3 3 3 3 3 2 2 2 2 2 2 1 1 1 2 2 2 2 2 2 2 2 2 1 1
0 0 0 0 0 0 0 0 1 3 3 3 3 3 3 3 4 4 4 4 4 4 4 3 3 3 3 2 2 2 1 1 1 1 1 0 1 1 1 1 2 2 2 2 2 2 2 2 1
0 0 0 0 0 0 0 1 2 3 3 4 4 4 4 4 4 4 4 4 4 4 3 3 2 2 2 2 2 1 1 0 0 0 0 0 0 0 0 1 1 1 2 2 2 2 2 2 2
0 0 0 0 0 0 0 1 2 2 3 3 4 4 4 4 4 4 4 4 4 3 3 2 2 2 1 1 1 1 0 0 0 0 0 0 0 0 0 0 1 1 1 1 2 2 2 2 2
0 0 0 0 0 0 0 1 2 1 2 3 4 4 4 4 4 4 4 3 3 2 2 2 1 1 1 1 0 0 0 0 0 0 0 0 0 0 0 0 0 0 0 1 1 1 2 2 2
0 0 0 0 0 0 0 1 1 1 1 2 3 3 3 3 3 3 3 3 2 2 1 1 1 1 1 0 0 0 0 0 0 0 0 0 0 0 0 0 0 0 0 0 1 1 1 1 2
0 0 0 0 0 0 0 1 1 1 1 2 2 2 2 2 2 2 2 2 1 1 1 1 1 1 1 1 1 1 0 0 0 0 0 0 0 0 0 0 0 0 0 0 0 0 1 1 1
0 0 0 0 0 0 0 1 1 1 1 1 1 1 1 1 1 2 2 1 1 1 1 1 1 1 1 1 1 1 1 1 0 0 0 0 0 0 0 0 0 0 0 0 0 0 0 0 1
0 0 0 0 0 0 0 0 1 1 1 1 0 0 0 0 1 1 1 1 1 1 0 1 1 1 1 1 1 1 1 1 1 0 0 0 0 0 0 0 0 0 0 0 0 0 0 0 0
0 0 0 0 0 0 0 0 0 1 1 0 0 0 0 0 1 1 1 1 0 0 1 1 1 2 1 1 1 1 1 1 1 1 0 0 0 0 0 0 0 0 0 0 0 0 0 0 0
0 0 0 0 0 0 0 0 0 1 1 0 0 0 0 0 1 1 1 0 0 0 1 1 2 2 2 2 2 2 2 1 1 1 0 0 0 0 0 0 0 0 0 0 0 0 0 0 0
0 0 0 0 0 0 0 0 0 0 0 0 0 0 0 0 1 0 0 0 0 0 1 1 2 3 3 3 2 2 2 1 1 1 0 0 0 0 0 0 0 0 0 0 0 0 0 0 0
0 0 0 0 0 0 0 0 0 0 0 0 0 0 0 0 0 0 0 0 0 0 1 1 2 3 3 3 2 2 1 1 1 0 0 0 0 0 0 0 0 0 0 0 0 0 0 0 0
0 0 0 0 0 0 0 0 0 0 0 0 0 0 0 0 0 0 0 0 0 1 1 1 2 3 2 2 2 1 1 1 0 0 0 0 0 0 0 0 0 0 0 0 0 0 0 0 0
0 0 0 0 0 0 0 0 0 0 0 0 0 0 0 0 0 0 0 0 1 1 1 1 2 2 1 1 1 1 1 0 0 0 0 0 0 0 0 0 0 0 0 0 0 0 0 0 0
0 0 0 0 0 0 0 0 0 0 0 0 0 0 0 0 0 0 0 0 1 1 1 1 1 1 1 0 0 0 0 0 0 0 0 0 1 1 0 0 0 0 0 0 0 0 0 0 0
0 0 0 0 0 0 0 0 0 0 0 0 0 0 0 0 0 0 0 0 0 1 1 1 1 1 0 0 0 0 0 0 1 1 1 1 1 1 1 1 0 0 0 0 0 0 0 0 0
0 0 0 0 0 0 0 0 0 0 0 0 0 0 0 0 0 0 0 0 0 0 0 1 1 1 0 0 0 0 0 1 1 1 1 1 1 1 1 1 1 0 0 0 0 0 0 0 0
Wind_Speed
11 12 11 9 8 5 6 10 6 10 11 11 13 16 18 16 13 12 15 22 23 19 17 15 14 13 12 11 10 9 9 10 10 10 10 10 10 9 8 8 7 7 7 7 7 7 7 7 7
11 13 11 8 9 4 2 9 3 7 8 9 13 19 20 18 16 16 17 20 22 19 16 15 15 13 12 11 11 10 10 10 10 10 10 10 9 8 7 7 6 5 5 5 5 6 6 6 6
13 16 10 9 13 7 6 8 2 6 6 7 13 16 14 13 14 14 15 19 20 18 16 16 15 14 12 11 11 11 11 10 10 9 9 8 8 7 6 5 5 4 4 4 4 4 5 5 4
9 10 9 12 18 8 4 2 3 3 5 8 14 14 11 8 13 17 16 19 20 19 17 15 14 13 12 11 10 10 10 9 9 8 7 7 6 5 4 4 3 3 3 3 3 3 4 4 3
10 9 13 16 19 8 3 2 3 4 5 4 14 15 12 9 16 17 15 19 17 18 17 15 14 12 11 9 9 8 8 7 7 6 5 4 3 3 2 2 2 1 1 2 2 2 3 4 3
9 10 13 16 14 5 6 2 5 2 8 10 16 17 11 9 14 15 15 15 17 19 17 14 13 12 10 9 8 7 6 5 5 4 3 2 1 1 1 2 2 2 2 2 2 3 3 4 4
11 12 16 20 14 5 4 5 3 3 4 7 10 14 13 12 11 13 14 14 17 18 16 13 13 11 10 9 8 6 5 4 3 3 2 2 2 3 4 4 4 4 3 4 4 4 4 5 5
11 12 18 18 15 4 1 2 4 4 4 4 5 10 13 14 10 12 13 14 14 14 14 12 12 10 10 9 8 7 6 5 4 3 3 4 5 6 7 6 7 6 5 5 5 6 6 6 6
12 12 15 15 9 1 3 4 3 4 7 5 7 16 19 17 14 13 13 14 12 11 10 9 11 8 7 9 9 8 7 5 4 4 5 5 4 3 4 7 6 7 7 6 7 7 7 7 8
10 12 14 9 6 3 2 3 3 2 6 11 16 20 20 16 14 14 14 13 12 10 10 7 8 6 5 5 6 4 4 4 1 1 0 1 2 3 3 3 6 7 8 8 9 9 8 7 6
10 12 11 8 5 3 4 4 3 1 7 11 10 15 17 16 14 13 13 13 12 10 9 8 7 6 5 4 3 2 2 2 2 3 3 2 2 2 2 0 2 3 6 5 5 6 5 5 4
9 9 8 9 8 7 6 4 1 8 12 11 8 7 13 14 13 12 12 12 12 11 9 9 8 6 6 5 3 2 2 2 2 3 4 3 2 2 2 1 1 2 2 2 2 2 4 4 4
7 7 7 7 8 7 7 4 2 13 17 15 12 10 10 12 13 12 13 13 12 11 10 9 8 6 5 4 3 3 2 1 3 3 4 4 3 3 3 2 2 2 2 2 2 2 3 3 3
7 7 7 7 7 6 7 3 2 9 12 15 13 12 11 11 13 13 12 12 11 10 9 8 7 6 5 4 2 1 2 2 3 4 5 5 4 4 4 4 2 2 1 1 1 3 3 3 3
7 9 12 11 11 8 6 2 8 4 7 12 11 10 11 11 12 11 11 11 11 10 9 7 7 5 4 4 2 2 3 4 3 3 5 6 5 5 5 4 3 2 2 1 2 3 2 4 4
6 2 5 14 15 11 3 4 4 6 2 8 10 11 10 10 11 11 11 11 11 10 7 5 7 7 5 3 2 3 4 3 2 3 5 5 5 5 5 4 4 4 3 2 2 2 2 2 2
5 4 6 9 15 10 5 5 5 8 5 3 7 10 10 9 10 10 11 11 10 9 7 6 6 6 5 4 2 3 2 1 1 3 4 4 4 5 5 4 3 4 4 3 4 3 2 2 3
7 1 3 5 9 6 6 10 9 9 8 6 7 9 9 9 9 10 10 11 10 9 7 6 6 5 4 3 1 1 1 1 1 4 4 3 3 5 5 4 5 5 4 4 4 4 3 3 3
7 6 2 6 10 4 5 11 11 11 9 8 9 10 10 9 10 9 10 11 11 9 8 6 6 5 3 1 0 0 1 1 1 2 4 2 3 4 4 4 5 4 4 5 5 4 5 4 3
7 6 4 8 9 1 5 3 6 8 7 7 8 9 10 10 10 9 9 10 11 10 8 7 6 6 4 2 1 1 1 2 1 1 3 2 3 3 4 5 4 5 5 5 4 4 3 5 5
4 6 8 7 5 3 5 0 3 5 7 7 7 8 10 11 12 11 11 11 11 10 10 8 7 7 5 3 2 2 1 2 1 1 1 3 2 2 2 3 3 4 5 4 5 4 5 4 5
2 6 7 5 3 1 1 3 5 6 7 8 9 9 10 11 12 11 11 11 11 11 10 8 8 6 5 4 3 2 2 2 2 1 1 2 1 1 1 1 3 4 4 5 5 5 5 5 4
7 5 8 12 10 5 3 4 4 9 8 10 11 11 11 13 13 13 12 11 11 10 10 9 8 7 5 4 3 3 3 2 2 3 2 1 3 3 2 1 1 3 4 3 4 5 5 4 5
10 7 7 10 6 4 10 5 5 7 10 12 13 13 12 13 13 12 12 9 8 8 8 9 9 7 6 5 4 3 3 2 3 3 3 3 2 1 2 2 2 2 3 4 4 5 6 4 5
7 9 2 2 1 7 13 4 6 8 10 11 13 13 12 12 12 12 11 10 8 8 7 7 10 8 7 6 5 3 2 2 4 4 4 3 2 1 3 2 1 2 3 4 4 4 5 5 5
7 9 7 5 3 3 6 5 9 10 10 11 12 13 13 13 12 12 12 10 8 8 7 7 8 8 6 5 4 3 2 2 3 1 2 3 2 2 1 1 2 3 4 5 4 4 5 5 4
7 7 9 9 7 3 2 7 12 11 11 10 12 13 13 12 13 12 12 11 9 8 7 7 7 7 5 4 4 4 4 4 3 3 3 4 3 3 2 2 3 4 4 5 5 4 5 5 5
7 9 7 6 6 2 3 3 3 8 11 11 11 12 12 12 11 12 11 11 9 8 7 7 7 6 4 4 4 4 5 5 5 4 4 3 4 4 4 4 4 5 5 5 5 5 5 5 5
7 7 5 6 7 7 2 0 6 8 9 11 12 12 12 13 13 11 10 9 9 9 9 7 7 6 5 4 3 2 2 3 3 4 5 5 5 4 4 5 5 5 6 6 5 6 6 6 6
10 8 5 5 5 7 4 3 2 2 5 7 8 10 10 10 9 10 10 9 8 9 9 9 8 7 6 6 5 5 4 4 4 5 5 4 4 5 5 5 5 6 6 5 6 6 6 6 6
Wind_Direction
201 223 226 241 241 237 310 301 34 66 71 64 65 81 74 64 81 95 107 106 109 114 119 115 106 101 95 93 98 109 117 122 122 122 122 123 123 123 124 123 120 115 109 102 96 90 86 83 84
219 227 232 242 246 226 255 280 348 80 81 91 85 83 78 73 87 101 106 113 115 121 126 117 111 105 99 94 94 101 108 114 117 120 122 122 123 125 126 125 124 121 116 111 104 99 94 91 91
238 242 254 248 251 236 188 235 126 99 109 103 87 72 70 79 96 108 118 122 116 114 112 116 116 111 106 102 100 101 105 110 115 117 119 121 124 126 126 127 129 129 127 124 120 115 111 106 104
240 232 240 254 265 273 200 203 107 146 133 127 108 91 81 63 102 115 129 122 113 117 118 119 120 116 114 112 109 108 109 111 113 114 117 121 125 128 129 133 137 139 142 144 137 140 137 131 129
240 255 247 260 266 279 284 331 264 191 115 96 97 103 99 87 106 124 132 119 123 120 118 123 122 120 118 116 114 112 113 114 116 117 118 120 123 131 144 157 165 171 172 173 174 171 164 162 162
247 256 263 267 270 286 293 298 281 187 130 125 114 112 106 118 123 134 126 124 122 118 119 122 123 123 122 121 120 121 122 122 123 124 125 132 148 200 244 242 231 227 227 220 213 203 199 197 192
259 277 279 280 277 244 255 295 324 32 95 105 107 111 126 132 126 126 123 118 118 119 123 135 137 136 136 135 136 137 136 135 137 148 165 201 233 242 246 248 241 237 241 240 233 228 226 220 213
260 279 281 279 275 245 231 286 73 69 49 70 121 124 133 135 136 123 118 111 112 119 126 138 142 144 154 151 149 147 150 156 168 186 206 226 243 246 246 243 230 229 234 243 244 240 235 226 220
262 264 269 281 303 342 29 351 40 127 127 113 89 110 126 137 139 132 124 116 112 111 115 126 131 142 153 149 146 158 166 172 186 203 220 244 269 273 236 245 233 223 226 233 241 243 239 229 222
245 257 269 307 357 19 19 299 286 229 114 88 86 102 123 137 143 142 134 128 125 116 108 97 105 114 116 119 131 155 161 148 140 68 156 249 309 303 294 211 216 225 233 236 237 240 239 230 227
257 267 294 313 330 312 271 265 263 254 75 75 84 116 131 142 146 140 135 132 125 117 106 105 96 81 72 83 93 79 78 86 81 65 22 11 320 291 299 234 211 232 241 241 237 226 232 231 232
276 292 301 309 313 297 278 259 268 76 98 105 117 139 140 144 133 127 124 122 121 115 106 94 82 74 59 57 73 74 68 66 76 72 37 12 323 313 324 302 284 245 245 233 244 229 233 238 243
255 280 287 292 284 282 279 263 87 94 122 132 147 162 148 133 121 113 112 116 115 110 101 93 88 84 83 65 57 75 72 66 81 66 51 12 353 358 342 326 299 282 262 227 228 237 249 250 247
323 312 308 298 282 256 242 249 104 102 125 133 156 155 142 125 120 116 115 112 110 107 103 103 102 104 107 98 89 102 101 84 71 70 54 20 9 7 345 310 297 289 275 246 239 243 229 233 233
330 335 340 313 284 255 232 33 29 68 136 138 143 134 123 117 114 115 114 114 112 111 114 118 117 112 108 110 116 95 72 68 70 81 70 37 13 360 340 314 309 343 324 294 249 257 236 234 230
319 4 314 292 289 284 251 68 4 304 175 138 135 126 119 117 118 112 110 112 118 121 126 142 124 120 107 88 51 70 56 56 61 68 68 38 0 8 336 328 353 350 325 304 273 245 258 267 270
272 210 210 273 280 276 95 109 248 260 250 155 137 133 128 128 120 118 120 121 124 126 131 114 113 125 120 118 102 102 109 97 87 84 70 33 -0 14 348 331 349 336 326 319 321 22 359 333 330
291 224 173 234 271 281 111 137 191 219 218 183 152 141 138 140 135 136 133 131 130 133 135 127 131 130 139 146 149 148 125 130 92 97 89 51 10 22 350 321 11 350 329 342 356 349 331 311 287
339 35 15 268 269 286 130 144 173 184 186 174 159 152 151 148 141 142 144 145 143 147 149 154 156 150 175 176 189 86 59 354 29 114 108 66 33 12 322 350 346 329 341 353 332 338 324 308 281
5 13 262 259 264 259 77 111 165 167 178 168 157 159 156 147 145 155 164 159 158 159 159 165 164 163 188 167 159 188 254 280 270 81 127 98 51 356 344 28 339 351 342 314 317 326 317 308 309
40 285 261 242 227 127 96 179 210 179 160 160 165 166 158 158 160 169 178 171 171 170 175 180 176 173 185 182 211 239 200 257 275 50 87 82 41 346 3 347 341 346 324 341 347 328 321 310 310
244 244 282 310 317 20 162 227 219 187 171 168 169 172 172 168 170 177 183 183 182 179 181 178 169 173 178 191 235 274 284 295 319 305 91 83 287 261 314 6 352 345 322 324 328 16 337 322 311
331 337 12 19 2 3 281 249 180 174 179 182 178 180 180 175 179 182 187 186 186 184 181 172 167 172 178 195 222 245 284 321 355 10 6 329 261 222 197 135 50 330 305 333 349 327 323 316 314
328 326 38 37 16 325 257 239 153 176 181 179 177 180 183 181 182 180 186 180 184 184 180 168 162 170 179 195 221 230 264 302 317 318 306 292 282 244 147 136 106 302 312 344 328 316 306 308 316
302 299 285 92 164 241 243 226 145 159 164 167 171 174 180 181 182 179 185 185 186 187 184 169 159 168 180 196 212 220 229 261 258 251 264 266 294 324 93 74 62 303 311 296 280 286 286 291 296
257 280 304 310 243 205 224 148 136 143 146 156 163 167 177 182 186 187 189 189 186 189 185 172 157 161 176 192 193 193 215 254 269 266 331 322 309 307 66 213 233 252 264 276 287 293 285 280 287
292 300 316 306 318 28 351 103 119 136 147 157 163 168 179 185 186 189 188 187 185 186 172 157 144 154 172 189 177 181 204 234 279 313 275 261 257 277 310 310 273 256 254 257 266 268 278 285 278
282 309 316 320 322 355 34 23 149 168 165 169 175 177 181 185 191 191 186 183 178 166 146 142 142 156 171 192 203 213 192 208 222 239 266 295 298 285 275 265 269 270 267 259 254 261 265 268 267
263 268 302 316 328 332 60 292 191 192 178 178 184 184 186 189 193 189 180 173 160 151 146 146 148 160 177 198 205 238 233 242 244 239 239 244 251 263 269 266 262 262 262 258 252 252 260 264 265
303 287 273 289 321 311 327 111 144 172 167 175 182 179 183 187 191 180 166 153 154 160 158 159 166 175 183 190 192 201 219 232 245 254 252 250 251 253 261 264 266 267 268 263 260 261 266 266 268